Race Results for
Original Merced Criterium
Merced, CA
(Event Information)
View By:
Criterium on 02/27/2011

Note: Ranking points are NOT upgrade points. An explanation of ranking points can be found here.


Men - Cat1/2/3 - Master - 35-99

 Place Points NameCity, StateTime USAC #BibTeam
1185.60Sean Smith   Oakland, CA00:00.0 204018  772 Webcor/Alto Velo
2195.73Dennis King   Arroyo Grande, CA00:00.0 51230  792 cct
3205.86Steve Thomsen   Reno, NV00:00.0 245436  789 Great Basin Imaging Cycling Te
4215.98Eric Easterling   Fresno, CA00:00.0 79101  771 Sierra Pacific Racing
5226.11Shaun Bagley   Visalia, CA00:00.0 60730  790 Momentum Racing California
6236.24Keith DeFiebre   Prunedale, CA00:00.0 9046  779 Central Coast Cycling Club
7246.37Russell Shapley   Laguna Beach, CA00:00.0 207867  798 Simple Green/Bike Religion
8256.50Lee Shuemake   Sonora, CA00:00.0 197770  782 Topsport
9266.62Joel Robertson   San Leandro, CA00:00.0 220316  773 Webcor/Alto Velo
10276.75Danny Rondon (1 - Cat2)   Tulare , CA00:00.0 30514  780 Sierra Pacific
11286.88Stone Beck (1 - Cat3)   Fresno, CA00:00.0 219237  781 Stevens Bicycle Racing
12297.01Mitch Boehs   Livingston, CA00:00.0 237309  788 Sierra Pacific Racing
13307.13Jason Kent   Walnut Creek, CA00:00.0 41826  791 Tieni Duro Junior Cycling Team
14317.26Victor Mirzayan (2 - Cat3)   Fresno, CA00:00.0 262853  777 Sierra Pacific Racing
15327.39Guy Van Natta   Clovis, CA00:00.0 218823  783 Momentum Racing California
16337.52Matthew Dearing (3 - Cat3)   Fresno, CA00:00.0 8970  784 Momentum Racing California
18347.64Andrew Robertson   Fresno, CA00:00.0 169555  776 Sierra Pacific Racing
19357.77Joseph Staron   Sacramento, CA00:00.0 132859  799 East Sac Bike
20367.90Faustino Riveron Jr.   Rancho Santa Margarita, CA00:00.0 48320  796 Simple Green / Bike Religion
21378.03Mark Sasser   Fresno, CA00:00.0 31332  797 SAFEWAY/PureRed Creative/Bicyc
22388.16James Edwards   Rcho Sta Marg, CA00:00.0 53917  786 Team Simple Green/Bike Religio
23398.28Bob Kubinski   Mission Viejo, CA00:00.0 56027  793 Simple Green / Bike Religion
DNSMike Okano   Trabuco Hills, CA00:00.0 26616  794 Simple Green/Bike Religion
DNSCameron Phillips   Huntington Beach, CA00:00.0 204365  795 Team Simple Green/Bike Religio
DNPAndrew Robertson   Fresno, CA00:00.0 169555  760 Sierra Pacific Racing
DNPSteve Vilhauer   Visalia, CA00:00.0 36682  770 Youngs Comm. Trans./Yokohl Ran
DNPBrian Bosch   Fresno, CA00:00.0 40703  774 Yahoo Cycling Team
DNPJohn Bergmann   Albany, CA00:00.0 187522  778 TEAM CLIF BAR Cycling
DNPGreg Tripoli   Hanford, CA00:00.0 281420  785 Momentum Racing California
DNPMike Okano   Trabuco Hills, CA00:00.0 26616  787 Team Simple Green/Bike Religio
DNPCurtis Eastin   Clovis, CA00:00.0 40657  775 Sierra Pacific Racing

Men - Cat 5 - Master - 35-99

 Place Points NameCity, StateTime USAC #BibTeam
1540.00Christopher Townzen   Rogue River Or00:00.0 332434  994 Unattached
2552.50Darren Johnson   Fresno, CA00:00.0 310422  997 
3565.00Tim Huang   Santa Clara, CA00:00.0 334324  996 San Jose Bike Club
4Francisco SANCHEZ   00:00.0  992 
5590.00STUART SCHULTZ   Modesto, CA00:00.0 303832  999 Fun Sport Cycling Team
DNSDonald Pattalock   Reno, NV00:00.0 333470  998 
DNPRockie Stevens   Clovis, CA00:00.0 286795  993 Vapor Racing
DNPMichael JOHNSON   00:00.0  995 

Men - Cat 4

 Place Points NameCity, StateTime USAC #BibTeam
1376.15nick baird   Sanger, CA00:00.0 309596  978 Sierra Pacific Racing
2386.60Ellis Anderson   Moraga, CA00:00.0 274504  981 Tieni Duro Junior Cycling Team
3397.05Jon Stewart   Fresno, CA00:00.0 179851  996 Stevens Bicycle Racing
4407.49Jarret St Aubin   Santa Clara, CA00:00.0 305029  995 
5417.94Byron Rhodes   Bakersfield, CA00:00.0 308492  992 Bolthouse Farms/AIAGE Cycling Club
6428.39Joshua Houssiere   Fresno, CA00:00.0 66056  987 Stevens Bicycle Racing
7438.84Stephen Shafer   Springville, CA00:00.0 318242  993 Youngs Comm. Trans./Yokohl Ran
8449.28Jon Keyzer   Fort Collins, CO00:00.0 298334  977 Chico Corsa
9459.73Justin Morgan   Fresno, CA00:00.0 238135  988 Stevens Bicycle Racing
10Cory GREER   00:00.0  998 Sierra Pacific
11480.63christopher pimentel   Clovis, CA00:00.0 304879  991 vapor
12491.08Barrett Henson   San Luis Obispo, CA00:00.0 15881  985 Slo Nexus
13501.52Matthew Abdalah   Los Altos, CA00:00.0 224627  979 
14511.97Henry Nelson   Oakland, CA00:00.0 289117  989 Tieni Duro
15522.42Rockie Stevens   Clovis, CA00:00.0 286795  976 Vapor Racing
16Tomas MUNDARAN   00:00.0  999 Momentum Racing
17543.32Eric Chi   Cupertino, CA00:00.0 223566  983 Webcor/Alto Velo
DNSMatt Chatlaong   Roseville, CA00:00.0 304797  982 Team City Sacramento
DNSJohn Griffin   Reno, NV00:00.0 307137  984 
DNSIan Hoffman   Fresno, CA00:00.0 271128  986 CVC
DNSChristopher Neutill   Atascadero, CA00:00.0 194353  990 Bishops Peak/ArtsCyclery.com
DNSJosh Soto   Encinitas , CA00:00.0 186735  994 B&L Bikes
DNPRobbie Farrens   Stockton, CA00:00.0 289433  975 Rocket Sports Racing
DNPCesar Anaya   Fresno, CA00:00.0 241922  980 Rubber Soul/CSC Racing Team
DNFChristopher White   Salinas, CA00:00.0 297747  997 Ghost Tree Racing

Men - Cat 4 - Master - 35-99

 Place Points NameCity, StateTime USAC #BibTeam
1356.88Robb Wolf   Reno, NV00:00.0 257141  697 Kinetic Cycles / GBI
2368.47Wyatt Garcia   Atwater, CA00:00.0 287655  699 Stanislaus/Merlock Velo
3380.06Joshua Houssiere   Fresno, CA00:00.0 66056  690 Stevens Bicycle Racing
4391.65Chad Covington   Clovis, CA00:00.0 7956  685 Sierra Pacific Racing
5403.24Michael Lynch   Ripon, CA00:00.0 180322  693 Fun Sport Bikes Cycling Team
6414.84Mark Wallis   Danville, CA00:00.0 304606  696 Taleo Racing
7426.43David Nasca   Roseville, CA00:00.0 41192  678 Folsom Bike
8438.02Keith Griffin   Stockton, CA00:00.0 14170  687 Kinetic Cycles/GBI
9449.61Frank Pinto   Monterey, CA00:00.0 227583  684 Joselyns Bicycle
10461.20Jack Arney   Lincoln, CA00:00.0 301427  679 Folsom Bike
11472.79Robert Woodward   Madera, CA00:00.0 303875  698 Steven's Bicycles Racing
12484.38Mark Wolford   Chico, CA00:00.0 121703  683 Team TIBCO II
13495.97Ryan Nickelson   Danville, CA00:00.0 227002  681 Wells Fargo Racing Team
14507.57Rockie Stevens   Clovis, CA00:00.0 286795  993 Vapor Racing
15519.16Christopher Kolm   Moraga, CA00:00.0 254578  692 Taleo Racing
16530.75Steve Jones   San Jose, CA00:00.0 272546  691 Webcor/Alto Velo
17542.34Stephen Ray   Fresno, CA00:00.0 29271  686 Stevens Bicycle Racing
18553.93Brendan Glueck   El Cerrito, CA00:00.0 275797  682 Team Oakland Cycling
19565.52Justin Morgan   Fresno, CA00:00.0 238135  695 Stevens Bicycle Racing
20577.11Blake James   Clovis, CA00:00.0 326254  680 Momentum Racing California
DNSJames Good   Oakland, CA00:00.0 254097  686 Taleo Racing
DNSJeff Mittner   Folsom, CA00:00.0 286671  694 Team Bicycles Plus/Sierra Neva
DNPBarrett Henson   San Luis Obispo, CA00:00.0 15881  689 Slo Nexus

Men - Cat 3

 Place Points NameCity, StateTime USAC #BibTeam
1272.61scott heather   Chico, CA00:00.0 306577  996 Chico Corsa Cycling Club
2277.39Matt Chatlaong   Roseville, CA00:00.0 304797  979 Team City Sacramento
3282.17Joseph Staron   Sacramento, CA00:00.0 132859  987 Unattached
4286.95Kenny Lane   Citrus Heights, CA00:00.0 274485  981 Rio Strada Racing
5291.73Jose Bonilla   Santa Cruz, CA00:00.0 180162  991 California Giant Cycling
6UNKNOWN RIDER   00:00.0  9XX 
7301.29Greg Tripoli   Hanford, CA00:00.0 281420  992 Momentum Racing California
8306.07Rich Tabuso   Roseville, CA00:00.0 274439  980 Rio Strada Racing
9310.85Mitch Boehs   Livingston, CA00:00.0 237309  999 Sierra Pacific Racing
10315.63Tony Homes   Danville, CA00:00.0 210572  983 R4R-Make A Wish
11320.41Jonathan Tallerico   Lodi, CA00:00.0 62747  978 Michael David Winery Cycling T
12325.19Givargis Betoshana   Ripon, CA00:00.0 55276  977 Fun Sport Bikes Cycling Team
13329.97Guy Van Natta   Clovis, CA00:00.0 218823  989 Momentum Racing California
14334.75David Doll   Merced, CA00:00.0 281768  994 Top Sport
15339.53Clifton Smoot   San Francisco, CA00:00.0 219426  975 Breakaway SF
16344.31Stone Beck   Fresno, CA00:00.0 219237  988 Stevens Bicycle Racing
17349.09Gregory McKinney   Fresno, CA00:00.0 196950  974 Momentum Racing California
18353.87Anthony Eng   El Cerrito, CA00:00.0 245065  984 Team Oakland Cycling
19358.65Kirk Evans   Sacramento, CA00:00.0 259534  995 Team Becher+
20363.43Jason Kent   Walnut Creek, CA00:00.0 41826  997 Tieni Duro Junior Cycling Team
21368.21Victor Mirzayan   Fresno, CA00:00.0 262853  973 Sierra Pacific Racing
22372.99Andrew Robertson   Fresno, CA00:00.0 169555  986 Sierra Pacific Racing
DNSBenjamin Dodge   San Jose, CA00:00.0 178595  993 Sierra Pacific
DNSMichael Painter   Chico Ca00:00.0 289184  998 Chico Corsa Cycling Club
DNPLutz Braun   Clovis, CA00:00.0 258096  976 Momentum Racing California
DNPKenny Strickland   San Ramon, CA00:00.0 270965  982 SJBC
DNPSteve Vilhauer   Visalia, CA00:00.0 36682  985 SSC
DNPMatthew Dearing   Fresno, CA00:00.0 8970  990 Momentum Racing California

Men - Pro/Cat 1/2

 Place Points NameCity, StateTime USAC #BibTeam
1143.25Brandon Trafton (1 - Cat1)   Sacramento, CA00:00.0 240033  197 California Giant Berry Farms/S
2147.23Brian Bosch (2 - Cat1)   Fresno, CA00:00.0 40703  150 Yahoo Cycling Team
3151.21Rand Miller (3 - Cat1)   San Francisco, CA00:00.0 182990  158 Alto Velo Racing Club
4155.19David Albrecht   Chico, CA00:00.0 47091  174 Chico Corsa
5159.17Elliot Jaramillo (4 - Cat1)   Burlingame, CA00:00.0 179930  184 McGuire Cycling Team
6163.15Darin Divine   Mill Valley, CA00:00.0 97504  179 Divine Electric Norcal
7167.13Tyler Brandt   Vallejo, CA00:00.0 210604  177 California Giant Berry Farms/S
8171.11Anthony Ferretti   Oroville, CA00:00.0 283185  182 Chico Corsa
9175.09Paul Kronser   San Luis Obipso, CA00:00.0 180954  147 TEAM CLIF BAR Cycling
10179.07John Bennett (5 - Cat1)   El Cerrito, CA00:00.0 237917  176 California Giant Berry Farms/S
11183.05Benjamin Swedberg   Kent, WA00:00.0 200484  194 California Giant Berry Farms/S
12187.03Martin Acosta   East Palo Alto, CA00:00.0 291277  173 McGuire Cycling Team
13191.02Paul Sumner   San Anselmo, CA00:00.0 47616  151 Divine Electric Norcal
14195.00Nicholas Oliver   El Dorado Hills, CA00:00.0 271541  156 Fremont Bank Cycling Team
15198.98Chris Stastny   Vacaville, CA00:00.0 249743  193 California Giant Berry Farms/S
16202.96Blake Anton   Arroyo Grande, CA00:00.0 192686  175 Clif Bar Cycling Team
17206.94David McCook   Tampa Fl00:00.0 66627  186 McGuire Cycling Team
18210.92Tyler Wertenbruch   Los Osos, CA00:00.0 155433  198 Team Clif Bar Cycling
19214.90Nathan Freed   Tahoe City, CA00:00.0 86484  148 Marc Pro - Strava
20218.88Michael Gil (1 - Cat2)   San Francisco, CA00:00.0 261220  155 Metromint Cycling
21222.86Herman Johnson   Modesto, CA00:00.0 53501  149 One Team Racing
22226.84Travis T   San Francisco, CA00:00.0 158451  195 Metromint Cycling
23230.82Jeffrey Galland   Paradise, CA00:00.0 127804  183 CHICO CORSA/SIERRA NEVADA
24234.80Mark Fairman (2 - Cat2)   San Francisco, CA00:00.0 270120  181 Metromint Cycling
25238.78Robbie Franscioni (3 - Cat2)   Salinas, CA00:00.0 298805  146 Bay Bikes/Specialized
26242.76Michael Jasinski (6 - Cat1)   Rocklin, CA00:00.0 269476  152 Fremont Bank Cycling Team
27246.74Darren Basso (4 - Cat2)   Belmont, CA00:00.0 130973  159 Audi
28250.72Joshua Bullock   Sacramento, CA00:00.0 153414  163 Chico Corsa Cycling Team
29254.70Brian Buchholz (7 - Cat1)   San Francisco, CA00:00.0 189913  160 Alto Velo Racing Club
30258.68Sean Smith   Oakland, CA00:00.0 204018  192 Webcor/AltoVelo
31262.66John Hunt   Fairfax, CA00:00.0 17154  169 California Giant Berry Farms/S
32266.64Daniel Bechtold (8 - Cat1)   Boise, ID00:00.0 286091  165 Hagens Berman Cycling
33270.62Joel Robertson (9 - Cat1)   San Leandro, CA00:00.0 220316  172 Webcor/Alto Velo
34274.60Sydney Newsom   Fresno, CA00:00.0 258955  145 Sierra Pacific Racing
35278.58Eric Easterling   Fresno, CA00:00.0 79101  171 Sierra Pacific Racing
36282.56Josh Rennie   Reno, NV00:00.0 251736  190 TEAM CLIF BAR Cycling
37286.54Peter Taylor (5 - Cat2)   Walnut Creek, CA00:00.0 219859  196 California Giant Berry Farms/S
38290.52Nathaniel Wilson   Boulder, CO00:00.0 207985  199 California Giant Berry Farms/S
39294.50Connor Spencer   San Francisco, CA00:00.0 256539  153 Metromint Cycling
40298.48Evan Huffman   El Dorado Hills, CA00:00.0 256955  162 California Giant Berry Farms/S
41302.46Jesse Moore   Sacramento, CA00:00.0 204739  188 California Giant Berry Farms/S
42306.44Keith Miller (10 - Cat1)   Los Gatos, CA00:00.0 53753  187 California Giant Berry Farms/S
43310.42Vincent Owens   Fresno, CA00:00.0 242560  157 Sierra Pacific Racing
44314.41James Mattis   Mountain View, CA00:00.0 127344  168 California Giant Berry Farms/S
DNSJoe Dickerson   Los Gatos, CA00:00.0 306664  78 McGuire Cycling Team
DNSMark Marquez   Martinez, CA00:00.0 288881  85 Fremont Bank Cycling Team
DNSOsvaldo Olmos   San Luis Obispo, CA00:00.0 172541  89 California Giant Berry Farms/S
DNSJames Ryan (Cat2)   San Jose, CA00:00.0 163902  91 McGuire Cycling Team
DNPCurtis Eastin   Clovis, CA00:00.0 40657  144 Sierra Pacific Racing
DNPJared Barrilleaux   Petaluma, CA00:00.0 248033  154 California Giant Berry Farms/S
DNPShaun Bagley   Visalia, CA00:00.0 60730  161 Momentum Racing California
DNPRyan Hostetter (Cat2)   San Luis Obispo, CA00:00.0 191767  164 Metromint Cycling
DNPMary Ellen Ash   Menlo Park, CA00:00.0 254874  166 Metromint Cycling
DNPMary Elizabeth Maroon (Cat1)   Sacramento, CA00:00.0 219555  170 Webcor/Alto Velo
DNPRobert Evans (Cat2)   Scotts Valley, CA00:00.0 72893  180 McGuire Cycling Team
DNPPascale SCHNIDER   00:00.0  167 Swiss National Team

Women - Cat 4

 Place Points NameCity, StateTime USAC #BibTeam
1394.84Misha Scovill   Fresno, CA00:00.0 302962  416 Velocity Valley Women
2402.87Korina Huizar   Roseville, CA00:00.0 332152  406 Metromint Cycling
3410.89Skylar Schneider   West Allis, WI00:00.0 300089  409 Team TIBCO II
4418.92Cybil Silberman   San Francisco, CA00:00.0 325510  415 Early Bird Womens Developmenta
5426.95Page Robertson   Oakland, CA00:00.0 291028  408 Tieni Duro
6434.97Maryann Schrupp   Reno, NV00:00.0 288460  410 Team Tibco II
7443.00Ellen Evans   Sacramento, CA00:00.0 310883  403 Becher +
8451.02Darien Reed   San Francisco, CA00:00.0 338764  417 Unattached
9459.05Sarah Smith   Exeter, CA00:00.0 283719  414 Youngs Comm. Trans./Yokohl Ran
10467.08Aliya Traficante   Chico, CA00:00.0 310825  411 Team TIBCO II
11475.10Katie O'Neill   San Mateo, CA00:00.0 291444  407 Team TIBCO II
12483.13Dana Freedman   Menlo Park, CA00:00.0 273191  405 Team TIBCO II
13491.15Robyn Allen   Lexington, MA00:00.0 224692  401 Boston Road Club
14499.18Marissa Axell   El Cerrito, CA00:00.0 269569  413 Touchstone Climbing
15507.21Gale DeRosa   Gold River, CA00:00.0 332412  402 Metromint
16515.23Jill Eyres   Montara, CA00:00.0 282468  404 Team TIBCO II
DNSKat Zumbach   Oakland, CA00:00.0 282471  412 Team TIBCO II
DNPDana Freedman   Menlo Park, CA00:00.0 273191   Team TIBCO II

Women - Cat 3

 Place Points NameCity, StateTime USAC #BibTeam
1320.36Ruste Parker   Fresno, CA00:00.0 304436  735 Velocity
2331.83Ellen Sherrill   South Lake Tahoe, CA00:00.0 299535  738 Davis Bike Club Race Team
3343.31Rita Szeto   Crockett, CA00:00.0 195322  737 Touchstone Climbing
4354.78Darci Page   Reno, NV00:00.0 232092  734 Dolce Vita
5366.26Esther Aarts   Berkeley, CA00:00.0 331988  740 Colavita Racing
6377.73Ann Kodani   Mountain View, CA00:00.0 143018  732 Team Tibco II
7389.21Margaret Jones   Chico, CA00:00.0 286593  739 Chico Corsa Cycling Club
DNSMargaret Jones   Chico, CA00:00.0 286593  731 Chico Corsa Cycling Club
DNSBobbiJo Price   Winner Sd00:00.0 296075  736 Team TIBCO II
DNPTara McCormick   Long Beach, CA00:00.0 229993  733 Team TIBCO

Women - Pro/Cat 1/2

 Place Points NameCity, StateTime USAC #BibTeam
1Pascale SCHMIDER   00:00.0  783 Swiss National Team
2152.69Samantha Schneider   Milwaukee, WI00:00.0 170980  795 Team TIBCO/To The Top
3162.99Carmen Small (1 - Pro)   Durango, CO00:00.0 229709  797 Team TIBCO/To The Top
4173.30Mary Elizabeth Maroon (1 - Cat1)   Sacramento, CA00:00.0 219555  760 Webcor/Alto Velo
5183.60Kendall Ryan (2 - Pro)   Ventura, CA00:00.0 186919  794 Team TIBCO/To The Top
6193.91Marissa Axell   El Cerrito, CA00:00.0 269569  413 Touchstone Climbing
7204.21Ryan Hostetter (1 - Cat2)   San Luis Obispo, CA00:00.0 191767  782 Metromint Cycling
8214.52Erinne Willock (2 - Cat1)   Pescadero, CA00:00.0 334436  799 Team TIBCO/To The Top
9224.82Emma Mackie (3 - Cat1)   Pescadero, CA00:00.0 334428  790 Team TIBCO/To The Top
10235.12Tara McCormick   Long Beach, CA00:00.0 229993  780 Team TIBCO II
11245.43Carlee Taylor (4 - Cat1)   Pescadero, CA00:00.0 334432  798 Team TIBCO/To The Top
12255.73Kira Prokopakis   Santa Clara, CA00:00.0 283149  779 Los Gatos Bicycle Racing Club
13266.04Jennie Phillips   Danville, CA00:00.0 203722  792 Wells Fargo Racing Team
14276.34Christine Sodaro   Tiburon, CA00:00.0 295205  785 Red Peloton
15286.64Josephine Morgan   Oakland, CA00:00.0 242553  784 Michael David Winery Cycling T
16296.95Anna Barensfeld   Ellwood City Pa00:00.0 234148  781 Missing Link
17307.25Jerika Hutchinson (2 - Cat2)   Mount Shasta, CA00:00.0 219674  789 
18317.56Amanda Seigle   Citrus Heights, CA00:00.0 203755  796 Metromint Cycling
19327.86Alison Powers (3 - Pro)   Pinecliffe, CO00:00.0 98704  793 Team TIBCO/To The Top
20338.17Mary Ellen Ash   Menlo Park, CA00:00.0 254874  787 Metromint Cycling
DNPKimberly Fong   Berkeley, CA00:00.0 238713  788 Michael David Winery Cycling T

Report missing or incorrect license numbers

Volkswagen
Bonk BreakerUSACDFSpyShimanoSierra Nevada
UCI USA Cycling is the official governing body for all disciplines of competitive cycling in the United States. The 501c3, membership-based organization aims both to achieve sustained success in international cycling competition and to grow competitive cycling in America while delivering an exceptional customer experience.
View Children's Online Privacy Protection Policy
US Olympic Committee